2016-11-17 00:05:12 r, 16.24m,0000000029Hz,0000016350c,0000000.035s, 022.2C,00002195
2016-11-17 00:15:13 r, 16.33m,0000000026Hz,0000017801c,0000000.039s, 022.2C,00002195
2016-11-17 00:25:12 r, 16.87m,0000000016Hz,0000029232c,0000000.063s, 022.2C,00002195
2016-11-17 00:35:12 r, 16.71m,0000000018Hz,0000025209c,0000000.055s, 021.9C,00002195
2016-11-17 00:45:12 r, 17.09m,0000000013Hz,0000035502c,0000000.077s, 021.5C,00002195
2016-11-17 00:55:12 r, 16.11m,0000000031Hz,0000014416c,0000000.031s, 021.5C,00002195
2016-11-17 01:05:12 r, 16.18m,0000000030Hz,0000015317c,0000000.033s, 021.2C,00002195
2016-11-17 01:15:12 r, 15.84m,0000000041Hz,0000011184c,0000000.024s, 021.2C,00002195
2016-11-17 01:25:12 r, 15.60m,0000000051Hz,0000008987c,0000000.020s, 021.2C,00002195
2016-11-17 01:35:12 r, 16.09m,0000000032Hz,0000014176c,0000000.031s, 021.5C,00002195
2016-11-17 01:45:12 r, 15.57m,0000000052Hz,0000008868c,0000000.019s, 021.5C,00002195
2016-11-17 01:55:12 r, 15.66m,0000000048Hz,0000009541c,0000000.021s, 021.5C,00002195
2016-11-17 02:05:12 r, 15.47m,0000000058Hz,0000008043c,0000000.017s, 021.5C,00002195
2016-11-17 02:15:12 r, 15.39m,0000000063Hz,0000007454c,0000000.016s, 021.5C,00002195
2016-11-17 02:25:12 r, 15.09m,0000000082Hz,0000005648c,0000000.012s, 021.5C,00002195
2016-11-17 02:35:12 r, 15.06m,0000000084Hz,0000005519c,0000000.012s, 021.5C,00002195
2016-11-17 02:45:12 r, 15.05m,0000000084Hz,0000005502c,0000000.012s, 021.5C,00002195
2016-11-17 02:55:12 r, 15.02m,0000000087Hz,0000005302c,0000000.012s, 021.5C,00002195
2016-11-17 03:05:12 r, 15.08m,0000000081Hz,0000005621c,0000000.012s, 021.5C,00002195
2016-11-17 03:15:12 r, 15.23m,0000000072Hz,0000006442c,0000000.014s, 021.5C,00002195
2016-11-17 03:25:12 r, 16.12m,0000000032Hz,0000014642c,0000000.032s, 021.5C,00002195
2016-11-17 03:35:12 r, 16.21m,0000000031Hz,0000015685c,0000000.034s, 021.2C,00002195
2016-11-17 03:45:12 r, 16.02m,0000000035Hz,0000013311c,0000000.029s, 020.9C,00002195
2016-11-17 03:55:12 r, 15.91m,0000000039Hz,0000012002c,0000000.026s, 020.9C,00002195
2016-11-17 04:05:12 r, 15.67m,0000000047Hz,0000009690c,0000000.021s, 020.9C,00002195
2016-11-17 04:15:12 r, 15.28m,0000000068Hz,0000006722c,0000000.015s, 020.6C,00002195
2016-11-17 04:25:12 r, 15.42m,0000000061Hz,0000007616c,0000000.017s, 020.9C,00002195
2016-11-17 04:35:12 r, 15.20m,0000000072Hz,0000006297c,0000000.014s, 020.6C,00002195
2016-11-17 04:45:12 r, 15.08m,0000000082Hz,0000005602c,0000000.012s, 020.6C,00002195
2016-11-17 04:55:12 r, 15.57m,0000000052Hz,0000008798c,0000000.019s, 020.6C,00002195
2016-11-17 05:05:12 r, 15.52m,0000000055Hz,0000008440c,0000000.018s, 020.6C,00002195
2016-11-17 05:15:12 r, 15.31m,0000000067Hz,0000006928c,0000000.015s, 020.6C,00002195
2016-11-17 05:25:13 r, 15.35m,0000000064Hz,0000007186c,0000000.016s, 020.6C,00002195
2016-11-17 05:35:12 r, 15.45m,0000000059Hz,0000007904c,0000000.017s, 020.3C,00002195
2016-11-17 05:45:13 r, 15.69m,0000000047Hz,0000009821c,0000000.021s, 020.3C,00002195
2016-11-17 05:55:12 r, 16.23m,0000000028Hz,0000016164c,0000000.035s, 019.9C,00002195
2016-11-17 06:05:12 r, 15.62m,0000000049Hz,0000009224c,0000000.020s, 019.9C,00002195
2016-11-17 06:15:13 r, 16.04m,0000000034Hz,0000013523c,0000000.029s, 019.9C,00002195
2016-11-17 06:25:12 r, 17.51m,0000000009Hz,0000052852c,0000000.115s, 019.6C,00002195
2016-11-17 06:35:12 r, 17.39m,0000000010Hz,0000047129c,0000000.102s, 019.3C,00002195
2016-11-17 06:45:12 r, 17.01m,0000000014Hz,0000033195c,0000000.072s, 019.0C,00002195
2016-11-17 06:55:12 r, 15.74m,0000000044Hz,0000010304c,0000000.022s, 019.0C,00002195
2016-11-17 07:05:12 r, 13.88m,0000000248Hz,0000000000c,0000000.000s, 018.6C,00002195
2016-11-17 07:15:12 r, 12.07m,0000001327Hz,0000000000c,0000000.000s, 018.3C,00002195
2016-11-17 07:25:12 r, 10.25m,0000007100Hz,0000000000c,0000000.000s, 018.3C,00002195
2016-11-17 07:35:12 r, 08.55m,0000033971Hz,0000000000c,0000000.000s, 018.0C,00002195
2016-11-17 07:45:12 r, 07.55m,0000085090Hz,0000000000c,0000000.000s, 018.3C,00002195
2016-11-17 07:55:12 r, 06.97m,0000144894Hz,0000000000c,0000000.000s, 018.3C,00002195
2016-11-17 08:05:12 r, 06.11m,0000321661Hz,0000000000c,0000000.000s, 018.3C,00002195
2016-11-17 08:15:12 r, 00.00m,0000559310Hz,0000000000c,0000000.000s, 018.3C,00002195
2016-11-17 08:25:13 r, 00.00m,0000563157Hz,0000000000c,0000000.000s, 018.3C,00002195
2016-11-17 08:35:12 r, 00.00m,0000563259Hz,0000000000c,0000000.000s, 018.6C,00002195
2016-11-17 08:45:12 r, 00.00m,0000563177Hz,0000000000c,0000000.000s, 018.6C,00002195
2016-11-17 08:55:12 r, 00.00m,0000563328Hz,0000000000c,0000000.000s, 019.0C,00002195
2016-11-17 09:05:12 r, 00.00m,0000563290Hz,0000000000c,0000000.000s, 019.6C,00002195
2016-11-17 09:15:12 r, 00.00m,0000563591Hz,0000000000c,0000000.000s, 020.3C,00002195
2016-11-17 09:25:12 r, 00.00m,0000563560Hz,0000000000c,0000000.000s, 020.9C,00002195
2016-11-17 09:35:12 r, 00.00m,0000563581Hz,0000000000c,0000000.000s, 021.2C,00002195
2016-11-17 09:45:12 r, 00.00m,0000563454Hz,0000000000c,0000000.000s, 020.9C,00002195
2016-11-17 09:55:12 r, 00.00m,0000563479Hz,0000000000c,0000000.000s, 020.9C,00002195
2016-11-17 10:05:12 r, 00.00m,0000563623Hz,0000000000c,0000000.000s, 020.9C,00002195
2016-11-17 10:15:12 r, 00.00m,0000563678Hz,0000000000c,0000000.000s, 020.9C,00002195
2016-11-17 10:25:12 r, 00.00m,0000563587Hz,0000000000c,0000000.000s, 021.5C,00002195
2016-11-17 10:35:12 r, 00.00m,0000563610Hz,0000000000c,0000000.000s, 021.5C,00002195
2016-11-17 10:45:12 r, 00.00m,0000563745Hz,0000000000c,0000000.000s, 021.9C,00002195
2016-11-17 10:55:13 r, 00.00m,0000563775Hz,0000000000c,0000000.000s, 021.9C,00002195
2016-11-17 11:05:12 r, 00.00m,0000563772Hz,0000000000c,0000000.000s, 022.2C,00002195
2016-11-17 11:15:12 r, 00.00m,0000563821Hz,0000000000c,0000000.000s, 022.5C,00002195
2016-11-17 11:25:12 r, 00.00m,0000563827Hz,0000000000c,0000000.000s, 022.8C,00002195
2016-11-17 11:35:13 r, 00.00m,0000563760Hz,0000000000c,0000000.000s, 022.8C,00002195
2016-11-17 11:45:12 r, 00.00m,0000563823Hz,0000000000c,0000000.000s, 022.8C,00002195
2016-11-17 11:55:12 r, 00.00m,0000563728Hz,0000000000c,0000000.000s, 022.5C,00002195
2016-11-17 12:05:12 r, 00.00m,0000563776Hz,0000000000c,0000000.000s, 022.5C,00002195
2016-11-17 12:15:12 r, 00.00m,0000563780Hz,0000000000c,0000000.000s, 022.5C,00002195
2016-11-17 12:25:12 r, 00.00m,0000563787Hz,0000000000c,0000000.000s, 022.2C,00002195
2016-11-17 12:35:12 r, 00.00m,0000563649Hz,0000000000c,0000000.000s, 022.2C,00002195
2016-11-17 12:45:12 r, 00.00m,0000563652Hz,0000000000c,0000000.000s, 022.2C,00002195
2016-11-17 12:55:12 r, 00.00m,0000563682Hz,0000000000c,0000000.000s, 022.2C,00002195
2016-11-17 13:05:12 r, 00.00m,0000563741Hz,0000000000c,0000000.000s, 022.2C,00002195
2016-11-17 13:15:12 r, 00.00m,0000563830Hz,0000000000c,0000000.000s, 022.2C,00002195
2016-11-17 13:25:12 r, 00.00m,0000563655Hz,0000000000c,0000000.000s, 022.2C,00002195
2016-11-17 13:35:12 r, 00.00m,0000563711Hz,0000000000c,0000000.000s, 021.9C,00002195
2016-11-17 13:45:12 r, 00.00m,0000563626Hz,0000000000c,0000000.000s, 021.9C,00002195
2016-11-17 13:55:12 r, 00.00m,0000563725Hz,0000000000c,0000000.000s, 021.9C,00002195
2016-11-17 14:05:12 r, 00.00m,0000563722Hz,0000000000c,0000000.000s, 022.2C,00002195
2016-11-17 14:15:12 r, 00.00m,0000563747Hz,0000000000c,0000000.000s, 021.9C,00002195
2016-11-17 14:25:12 r, 00.00m,0000563657Hz,0000000000c,0000000.000s, 022.2C,00002195
2016-11-17 14:35:12 r, 00.00m,0000563709Hz,0000000000c,0000000.000s, 022.2C,00002195
2016-11-17 14:45:12 r, 00.00m,0000563629Hz,0000000000c,0000000.000s, 021.9C,00002195
2016-11-17 14:55:12 r, 00.00m,0000563601Hz,0000000000c,0000000.000s, 021.9C,00002195
2016-11-17 15:05:12 r, 00.00m,0000563559Hz,0000000000c,0000000.000s, 021.2C,00002195
2016-11-17 15:15:12 r, 00.00m,0000563620Hz,0000000000c,0000000.000s, 021.2C,00002195
2016-11-17 15:25:12 r, 00.00m,0000563479Hz,0000000000c,0000000.000s, 020.9C,00002195
2016-11-17 15:35:12 r, 00.00m,0000563470Hz,0000000000c,0000000.000s, 020.9C,00002195
2016-11-17 15:45:12 r, 00.00m,0000563514Hz,0000000000c,0000000.000s, 020.6C,00002195
2016-11-17 15:55:12 r, 00.00m,0000563429Hz,0000000000c,0000000.000s, 020.3C,00002195
2016-11-17 16:05:12 r, 00.00m,0000535229Hz,0000000000c,0000000.000s, 020.3C,00002195
2016-11-17 16:15:12 r, 05.89m,0000389919Hz,0000000000c,0000000.000s, 019.9C,00002195
2016-11-17 16:25:12 r, 06.51m,0000220378Hz,0000000000c,0000000.000s, 019.6C,00002195
2016-11-17 16:35:12 r, 07.19m,0000118453Hz,0000000000c,0000000.000s, 019.6C,00002195
2016-11-17 16:45:12 r, 08.05m,0000053796Hz,0000000000c,0000000.000s, 019.6C,00002195
2016-11-17 16:55:12 r, 09.19m,0000018877Hz,0000000000c,0000000.000s, 019.3C,00002195
2016-11-17 17:05:12 r, 10.87m,0000003987Hz,0000000000c,0000000.000s, 019.6C,00002195
2016-11-17 17:15:12 r, 12.89m,0000000623Hz,0000000000c,0000000.000s, 019.3C,00002195
2016-11-17 17:25:12 r, 14.56m,0000000133Hz,0000000000c,0000000.000s, 019.3C,00002195
2016-11-17 17:35:12 r, 15.42m,0000000060Hz,0000007677c,0000000.017s, 019.3C,00002195
2016-11-17 17:45:12 r, 16.24m,0000000029Hz,0000016380c,0000000.036s, 019.3C,00002195
2016-11-17 17:55:12 r, 15.54m,0000000053Hz,0000008628c,0000000.019s, 019.3C,00002195
2016-11-17 18:05:12 r, 15.67m,0000000048Hz,0000009609c,0000000.021s, 019.3C,00002195
2016-11-17 18:15:12 r, 16.07m,0000000033Hz,0000013914c,0000000.030s, 019.3C,00002195
2016-11-17 18:25:15 r, 16.67m,0000000018Hz,0000024220c,0000000.053s, 019.3C,00002195
2016-11-17 18:35:12 r, 16.45m,0000000023Hz,0000019913c,0000000.043s, 019.3C,00002195
2016-11-17 18:45:13 r, 16.00m,0000000035Hz,0000013168c,0000000.029s, 019.3C,00002195
2016-11-17 18:55:12 r, 16.09m,0000000032Hz,0000014146c,0000000.031s, 019.3C,00002195
2016-11-17 19:05:12 r, 16.19m,0000000029Hz,0000015565c,0000000.034s, 019.3C,00002195
2016-11-17 19:15:12 r, 16.11m,0000000031Hz,0000014522c,0000000.032s, 019.0C,00002195
2016-11-17 19:25:12 r, 16.20m,0000000029Hz,0000015788c,0000000.034s, 019.0C,00002195
2016-11-17 19:35:12 r, 16.47m,0000000023Hz,0000020180c,0000000.044s, 019.0C,00002195
2016-11-17 19:45:12 r, 15.49m,0000000056Hz,0000008158c,0000000.018s, 018.6C,00002195
2016-11-17 19:55:12 r, 15.53m,0000000054Hz,0000008509c,0000000.018s, 018.6C,00002195
2016-11-17 20:05:12 r, 16.14m,0000000030Hz,0000014857c,0000000.032s, 018.6C,00002195
2016-11-17 20:15:12 r, 16.13m,0000000031Hz,0000014714c,0000000.032s, 018.6C,00002195
2016-11-17 20:25:15 r, 17.44m,0000000010Hz,0000049102c,0000000.107s, 018.3C,00002195
2016-11-17 20:35:12 r, 17.29m,0000000011Hz,0000042993c,0000000.093s, 018.0C,00002195
2016-11-17 20:45:12 r, 17.23m,0000000011Hz,0000040515c,0000000.088s, 018.0C,00002195
2016-11-17 20:55:12 r, 17.17m,0000000012Hz,0000038418c,0000000.083s, 017.7C,00002195
2016-11-17 21:05:12 r, 16.75m,0000000017Hz,0000025989c,0000000.056s, 017.7C,00002195
2016-11-17 21:15:12 r, 16.85m,0000000016Hz,0000028621c,0000000.062s, 017.7C,00002195
2016-11-17 21:25:12 r, 16.37m,0000000025Hz,0000018516c,0000000.040s, 017.7C,00002195
2016-11-17 21:35:12 r, 16.86m,0000000016Hz,0000028705c,0000000.062s, 017.7C,00002195
2016-11-17 21:45:12 r, 16.78m,0000000017Hz,0000026863c,0000000.058s, 017.7C,00002195
2016-11-17 21:55:13 r, 17.05m,0000000014Hz,0000034423c,0000000.075s, 017.7C,00002195
2016-11-17 22:05:13 r, 17.05m,0000000013Hz,0000034492c,0000000.075s, 017.7C,00002195
2016-11-17 22:15:12 r, 17.01m,0000000014Hz,0000033187c,0000000.072s, 017.4C,00002195
2016-11-17 22:25:12 r, 16.76m,0000000017Hz,0000026349c,0000000.057s, 017.4C,00002195
2016-11-17 22:35:12 r, 16.75m,0000000017Hz,0000026203c,0000000.057s, 017.4C,00002195
2016-11-17 22:45:12 r, 16.57m,0000000021Hz,0000022142c,0000000.048s, 017.4C,00002195
2016-11-17 22:55:12 r, 16.31m,0000000026Hz,0000017531c,0000000.038s, 017.4C,00002195
2016-11-17 23:05:12 r, 16.82m,0000000017Hz,0000027784c,0000000.060s, 017.4C,00002195
2016-11-17 23:15:12 r, 16.53m,0000000022Hz,0000021426c,0000000.046s, 017.4C,00002195
2016-11-17 23:25:12 r, 16.97m,0000000014Hz,0000031989c,0000000.069s, 017.4C,00002195
2016-11-17 23:35:12 r, 17.01m,0000000014Hz,0000033067c,0000000.072s, 017.0C,00002195
2016-11-17 23:45:12 r, 16.18m,0000000030Hz,0000015420c,0000000.033s, 017.0C,00002195
2016-11-17 23:55:12 r, 16.15m,0000000030Hz,0000015097c,0000000.033s, 017.4C,00002195
